Zurück zum Katalog

BREEZE-M DEB

AktivHEO
NORAD 36963·DEBRIS·🇷🇺 Russia

Gestartet Feb 28, 2006 von Baikonur Cosmodrome

Loading…

Nächste Überflüge (nächste 24 Stunden)

TLE

AktuellSource: Space-Track

Epoche: Sep 13, 2026, 10:21 UTC

1 36963U 06006CV  26256.43168012  .00002629  00000-0  15748-2 0  9991
2 36963  51.5896 335.6659 4721563  94.6600 318.7358  5.95458272 37409

Verfolge BREEZE-M DEB in Echtzeit mit AllMySat

Download on the App Store